Torna al catalogo

BREEZE-M DEB

TANK

AttivoHEO
NORAD 32374·DEBRIS·🇷🇺 Russia

Lanciato Dec 9, 2007 da Baikonur Cosmodrome

Loading…

Prossimi Passaggi (prossime 24 ore)

TLE

AggiornatoSource: Space-Track

Epoca: Sep 14, 2026, 12:45 UTC

1 32374U 07058B   26257.53147783  .00127781  66471-7  77597-3 0  9994
2 32374  45.9868 240.4942 5166173 216.8907  93.0286  5.51261158 40037

Traccia BREEZE-M DEB in tempo reale con AllMySat

Download on the App Store